Pitkin, LA

10:07 AM CDT on September 25, 2016 (GMT -0500)
Fort Polk

Weather History for KBKB - March, 2013

Change the Weather History Date:

Thursday, March 21, 2013

  Actual Average (KPOE) Record (KPOE)
Temperature  
Mean Temperature 56 °F -  
Max Temperature 69 °F 69 °F 81 °F (2011)
Min Temperature 42 °F 48 °F 32 °F (2016)
Degree Days  
Heating Degree Days 10    
Growing Degree Days 6 (Base 50)    
Moisture  
Dew Point 37 °F    
Average Humidity 51    
Maximum Humidity 82    
Minimum Humidity 29    
Precipitation  
Precipitation 0.00 in - - ()
Sea Level Pressure  
Sea Level Pressure 30.00 in    
Wind  
Wind Speed 2 mph (SSE)    
Max Wind Speed 9 mph    
Max Gust Speed -    
Visibility 10 miles    
Events      
Averages and records for this station are not official NWS values.
T = Trace of Precipitation, MM = Missing Value Source: NWS Daily Summary

Daily Weather History Graph

Daily Weather History Graph

Search for Another Location

Airport or City:

Trip Planner

Search our weather history database for the weather conditions in past years. The results will help you decide how hot, cold, wet, or windy it might be!

Date:

Astronomy

Mar. 21, 2013 Rise Set
Actual Time 7:13 AM CDT 7:23 PM CDT
Civil Twilight 6:49 AM CDT 7:48 PM CDT
Nautical Twilight 6:21 AM CDT 8:16 PM CDT
Astronomical Twilight 5:53 AM CDT 8:44 PM CDT
Moon 2:12 PM CDT (3/21) 3:16 AM CDT (3/21)
Length of Visible Light 12h 58m
Length of Day
12h 10m
Waxing Gibbous, 69% of the Moon is Illuminated
Mar 21
Waxing Gibbous
Mar 27
Full
Apr 2
Last Quarter
Apr 10
New
Apr 18
First Quarter

Hourly Weather History & Observations

Time (CDT) Temp. Dew Point Humidity Pressure Visibility Wind Dir Wind Speed Gust Speed Precip Events Conditions
12:54 AM 45.0 °F 37.0 °F 74% 30.12 in 10.0 mi Calm Calm - N/A   Clear
1:54 AM 43.0 °F 37.0 °F 80% 30.11 in 10.0 mi Calm Calm - N/A   Clear
2:54 AM 42.1 °F 36.0 °F 79% 30.10 in 10.0 mi Calm Calm - N/A   Clear
3:54 AM 43.0 °F 37.9 °F 82% 30.09 in 10.0 mi Calm Calm - N/A   Clear
4:54 AM 44.1 °F 39.0 °F 82% 30.09 in 10.0 mi Calm Calm - N/A   Clear
5:54 AM 45.0 °F 39.0 °F 80% 30.09 in 10.0 mi Calm Calm - N/A   Clear
6:54 AM 48.0 °F 34.0 °F 58% 30.10 in 10.0 mi Calm Calm - N/A   Clear
7:54 AM 48.9 °F 32.0 °F 52% 30.09 in 10.0 mi Calm Calm - N/A   Clear
8:54 AM 52.0 °F 34.0 °F 50% 30.10 in 10.0 mi Variable 4.6 mph - N/A   Partly Cloudy
9:54 AM 55.9 °F 34.0 °F 44% 30.09 in 10.0 mi Variable 6.9 mph - N/A   Scattered Clouds
10:54 AM 59.0 °F 33.1 °F 38% 30.08 in 10.0 mi Variable 4.6 mph - N/A   Scattered Clouds
11:54 AM 62.1 °F 33.1 °F 34% 30.06 in 10.0 mi Variable 6.9 mph - N/A   Mostly Cloudy
12:54 PM 66.0 °F 33.1 °F 29% 30.02 in 10.0 mi Variable 6.9 mph - N/A   Mostly Cloudy
1:54 PM 64.0 °F 30.9 °F 29% 29.98 in 10.0 mi SE 9.2 mph - N/A   Mostly Cloudy
2:54 PM 66.9 °F 35.1 °F 31% 29.93 in 10.0 mi Variable 5.8 mph - N/A   Mostly Cloudy
3:54 PM 68.0 °F 36.0 °F 31% 29.90 in 10.0 mi Variable 6.9 mph - N/A   Partly Cloudy
4:54 PM 69.1 °F 35.1 °F 29% 29.87 in 10.0 mi Variable 5.8 mph - N/A   Clear
5:54 PM 66.9 °F 36.0 °F 32% 29.86 in 10.0 mi South 8.1 mph - N/A   Clear
6:54 PM 64.0 °F 37.9 °F 38% 29.87 in 10.0 mi Variable 4.6 mph - N/A   Mostly Cloudy
7:54 PM 62.1 °F 41.0 °F 46% 29.88 in 10.0 mi Variable 3.5 mph - N/A   Overcast
8:54 PM 62.1 °F 41.0 °F 46% 29.86 in 10.0 mi Variable 4.6 mph - N/A   Overcast
9:54 PM 61.0 °F 42.1 °F 50% 29.88 in 10.0 mi Variable 6.9 mph - N/A   Overcast
10:54 PM 60.1 °F 43.0 °F 53% 29.90 in 10.0 mi Variable 5.8 mph - N/A   Overcast
11:54 PM 59.0 °F 46.0 °F 62% 29.89 in 10.0 mi Calm Calm - 0.00 in   Overcast